User: anonymous   Login
Location: Armidale
(30.5016°S, 151.6662°E)
Time: 22:10:50
(UTC+10:00)
Language:

Oscar 11 - Orbit

View from above orbital plane
View from above orbital plane
View from above satellite
View from above satellite

Ground track
Ground track

The orbit data is extracted from the following two-line orbital elements,

1 14781U 84021B   21212.24235865  .00000151  00000-0  24465-4 0  9991
2 14781  97.5937 209.9297 0007106 303.8668  56.1869 14.83307759 13421
Epoch (UTC): 31 July 2021 05:48:59
Eccentricity: 0.0007106
inclination: 97.5937°
perigee height: 614 km
apogee height: 624 km
right ascension of ascending node: 209.9297°
argument of perigee: 303.8668°
revolutions per day: 14.83307759
mean anomaly at epoch: 56.1869°
orbit number at epoch: 1342

The dashed part of the orbit path shows where the satellite is in the earth's shadow,  

DLR